Regional Weather Roundup
Issued by NWS

Home | Current Version | Previous Version | Text Only | Print | Product List | Glossary Off
Versions: 1 2 3 4 5 6 7 8 9 10 11 12 13 14 15 16 17 18 19 20 21 22 23 24 25 26 27 28 29 30 31 32 33 34 35 36 37 38 39 40 41 42 43 44 45 46 47 48 49 50

000
ASUS43 KOAX 200110
RWRNE

WEATHER ROUNDUP FOR NEBRASKA
NATIONAL WEATHER SERVICE OMAHA NE
800 PM CDT THU APR 19 2018

NOTES: SATELLITE DATA IS BEING USED TO AUGMENT CLOUD COVER ABOVE
       12000 FEET.
       "FAIR" INDICATES FEW OR NO CLOUDS BELOW 12,000 FEET WITH NO
       SIGNIFICANT WEATHER AND/OR OBSTRUCTIONS TO VISIBILITY.


NEZ001>004-019>022-054>056-200200-
NEBRASKA PANHANDLE

CITY           SKY/WX    TMP DP  RH WIND       PRES   REMARKS
SCOTTSBLUFF    CLOUDY    58  30  34 SE23G30   30.07F
ALLIANCE       CLOUDY    52  30  43 SE23G32   30.13F
CHADRON        CLOUDY    56  31  38 SE13      30.12F
GORDON         FAIR      53  28  38 SE12G17   30.18F
KIMBALL        CLOUDY    55  24  30 SE25G33   30.08F
SIDNEY         CLOUDY    54  28  36 SE18G29   30.12F
$$

NEZ057>060-069>072-079>082-200200-
SOUTHWEST NEBRASKA

CITY           SKY/WX    TMP DP  RH WIND       PRES   REMARKS
NORTH PLATTE   MOCLDY    53  27  36 SE13G21   30.26R
IMPERIAL       MOCLDY    55  26  32 E20G33    30.18F
LEXINGTON      PTCLDY    53  25  33 SE10      30.29S
MCCOOK         PTCLDY    54  27  35 E16       30.24F
OGALLALA       CLOUDY    56  27  32 SE16G23   30.20S
$$

NEZ005>010-023>029-035>040-094-200200-
NORTH CENTRAL NEBRASKA

CITY           SKY/WX    TMP DP  RH WIND       PRES   REMARKS
VALENTINE      MOCLDY    51  25  36 SE13      30.28R
AINSWORTH      MOCLDY    48  28  45 SE9       30.29S
BROKEN BOW     PTCLDY    50  28  42 SE9       30.29S
O`NEILL        PTCLDY    47  32  55 E9        30.33F
ORD            CLEAR     50  23  34 SE7       30.31S
THEDFORD       MOCLDY    51  29  42 SE12      30.28R
$$

NEZ041-046>049-061>064-073>077-083>087-200200-
SOUTH CENTRAL NEBRASKA

CITY           SKY/WX    TMP DP  RH WIND       PRES   REMARKS
GRAND ISLAND   CLEAR     52  28  39 SE8       30.33S
AURORA         CLOUDY    52  25  34 SE8       30.33R
HASTINGS       PTCLDY    52  26  36 E8        30.32S
HEBRON         PTCLDY    54  26  33 SE6       30.33S
HOLDREGE       CLOUDY    52  27  38 SE10      30.30S
KEARNEY        CLEAR     52  27  38 SE10      30.31S
YORK             N/A     52  27  37 CALM      30.34R
$$

NEZ011>018-030>034-042>045-200200-
NORTHEAST NEBRASKA

CITY           SKY/WX    TMP DP  RH WIND       PRES   REMARKS
NORFOLK        PTCLDY    49  25  39 E7        30.35R
ALBION         CLOUDY    51  24  35 E8        30.34S
BLAIR          CLEAR     52  28  40 E8        30.36S HAZE
COLUMBUS       CLOUDY    51  27  39 E8        30.36F
FREMONT        CLEAR     55  28  36 E7        30.36S
TEKAMAH        PTCLDY    50  31  48 E9        30.37F
WAYNE          PTCLDY    48  37  64 E13       30.38R
$$

NEZ050>053-065>068-078-088>093-200200-
SOUTHEAST NEBRASKA

CITY           SKY/WX    TMP DP  RH WIND       PRES   REMARKS
LINCOLN        CLEAR     54  26  34 E8        30.36F
OMAHA EPPLEY   MOCLDY    54  27  35 E8        30.37S
BEATRICE       CLOUDY    55  30  38 E6        30.35S
FALLS CITY     CLEAR     52  27  38 E7        30.36R
NEBRASKA CITY  CLEAR     53  29  40 E5        30.36S
PLATTSMOUTH    CLEAR     53  27  36 E5        30.36S HAZE
$$

NEZ044-045-051>053-067-200200-
OMAHA AREA

CITY           SKY/WX    TMP DP  RH WIND       PRES   REMARKS
OMAHA EPPLEY   MOCLDY    54  27  35 E8        30.37S
BLAIR          CLEAR     52  28  40 E8        30.36S HAZE
FREMONT        CLEAR     55  28  36 E7        30.36S
MILLARD        CLEAR     56  29  35 CALM      30.36S
OFFUTT AFB     CLEAR     51  27  39 E7        30.36S
PLATTSMOUTH    CLEAR     53  27  36 E5        30.36S HAZE
WAHOO          FAIR      51  24  34 E5        30.36S
$$



USA.gov is the U.S. government's official web portal to all federal, state and local government web resources and services.